[[{"header":{"parameterUnit":"m.s-1","parameterCategory":1,"la1":30.2991,"la2":30.254,"lo1":-89.0895,"lo2":-89.0444,"dy":0.0017,"dx":0.0017,"nx":28,"ny":28,"refTime":"2023-10-17T21:00:00:Z","depth":0,"parameterNumber":2,"parameterNumberName":"U-component_of_WINDS"},"data":[0,0,0,0,0,0,0,0,0,0,0,0,0,0,0,0,0,0,0,0,0,0,0,0,0,0,0,0,0,0,0,0,0,0,0,0,0,0,0,0,0,0,0,0,0,0,0,0,0,0,0,0,0,0,0,0,0,0,1.5625,1.5626,0,1.5694,1.5695,1.5696,1.5636,1.5633,1.5631,1.5628,1.5704,1.5709,1.5713,0,0,0,0,0,0,0,0,0,0,0,0,0,1.5447,1.545,1.5625,1.5626,1.5627,1.5694,1.5695,1.5696,1.5636,1.5633,1.563,1.5627,1.5703,1.5708,1.5713,0,0,0,0,0,0,0,0,0,0,0,0,0,1.5521,1.5451,1.5625,1.5605,1.5604,1.5694,1.5695,1.5696,1.5637,1.5633,1.5629,1.5626,1.5701,1.5708,1.5714,1.5829,0,0,1.5734,1.5737,0,0,0,0,0,0,0,0,1.5517,1.5528,1.5607,1.5606,1.5605,1.5652,1.566,1.5741,1.5638,1.5624,1.5628,1.5624,1.5691,1.5698,1.5719,1.5833,1.5836,1.5735,1.5739,1.5741,1.5743,0,0,0,0,0,0,0,1.5512,1.5524,1.5652,1.5608,1.5607,1.5594,1.5601,1.5675,1.5678,1.5625,1.5621,1.563,1.5689,1.5713,1.572,1.5837,1.5734,1.574,1.5744,1.5747,1.6051,1.6055,0,0,0,0,0,0,1.5508,1.552,1.565,1.5654,1.5551,1.5601,1.5608,1.5641,1.5677,1.5678,1.5633,1.5627,1.5704,1.5713,1.5723,1.5861,1.5741,1.5747,1.5751,1.6047,1.6052,1.6057,0,0,0,0,0,0,1.5504,1.552,1.5647,1.5586,1.5602,1.5608,1.5646,1.5644,1.5668,1.5682,1.5683,1.5656,1.5701,1.5714,1.5803,1.5863,1.575,1.5756,1.6042,1.6049,1.6054,1.6138,0,0,0,0,0,0,1.55,1.5519,1.5561,1.5588,1.5605,1.5725,1.5649,1.5648,1.5679,1.5671,1.5704,1.5706,1.5699,1.5794,1.581,1.587,1.5761,1.6037,1.6045,1.6052,1.613,1.6146,1.616,0,0,0,0,0,1.5493,1.5583,1.5564,1.558,1.5658,1.5729,1.5739,1.5727,1.5684,1.5727,1.5737,1.5705,1.5854,1.5804,1.5821,1.5884,1.6033,1.6043,1.6052,1.6123,1.6143,1.616,0,0,0,0,0,0,1.5565,1.5586,1.5565,1.5665,1.5695,1.5718,1.5773,1.5748,1.5793,1.5784,1.5769,1.5777,1.5872,1.5887,1.5831,1.5998,1.5937,1.595,1.5985,1.6004,1.6019,1.6014,1.5767,0,0,0,0,0,1.5592,1.5646,1.5662,1.5749,1.5765,1.5767,1.5797,1.5786,1.5817,1.583,1.5846,1.5879,1.5933,1.5969,1.602,1.6132,1.6139,1.6184,1.6199,1.6211,1.6223,1.6285,1.6306,1.6087,1.6087,1.6087,0,0,1.5649,1.5667,1.5703,1.5764,1.5786,1.5844,1.5778,1.5842,1.5886,1.584,1.5925,1.5939,1.5975,1.6077,1.6122,1.6092,1.6285,1.6223,1.6233,1.6238,1.6297,1.6318,1.6336,1.6094,1.6093,1.6092,0,0,1.5783,1.5802,1.5877,1.59,1.5934,1.5934,1.5953,1.598,1.5986,1.6071,1.6039,1.6092,1.6185,1.6213,1.6239,1.6385,1.6359,1.6403,1.6482,1.6543,1.656,1.6575,1.6629,1.6648,1.6414,1.6414,1.6415,0,1.585,1.5935,1.5919,1.5986,1.6015,1.5975,1.6052,1.6076,1.6126,1.6148,1.6113,1.623,1.6251,1.636,1.6395,1.6418,1.644,1.6399,1.6558,1.6573,1.6587,1.6638,1.6658,1.642,1.6419,1.6418,1.6418,0,1.6017,1.6076,1.6133,1.618,1.6216,1.6288,1.6285,1.6323,1.6309,1.6314,1.6403,1.6427,1.6483,1.6508,1.6495,1.6615,1.6595,1.656,1.6498,1.6614,1.6661,1.6681,1.6427,1.6425,1.6424,1.6422,0,0,1.6197,1.6235,1.6256,1.6278,1.6313,1.636,1.6431,1.6484,1.6518,1.6554,1.6614,1.6695,1.6663,1.6693,1.6683,1.6736,1.6852,1.6694,1.6695,1.6723,1.6988,1.7015,1.7037,1.6834,1.6838,1.6841,1.6985,0,1.6333,1.6454,1.6443,1.6559,1.6615,1.6579,1.6642,1.6671,1.6678,1.6728,1.6737,1.6795,1.6747,1.6765,1.6816,1.6827,1.6905,1.6817,1.6893,1.6896,1.6885,1.7062,1.7091,1.7225,1.7004,1.7007,1.7009,0,1.6507,1.6548,1.667,1.6698,1.6721,1.6777,1.6825,1.6873,1.6907,1.6909,1.6943,1.6924,1.6998,1.6935,1.7038,1.6978,1.7008,1.7019,1.7024,1.7031,1.6959,1.7075,1.7268,1.7288,1.7038,1.7036,1.7034,0,1.6628,1.6714,1.6798,1.6818,1.6852,1.6893,1.6909,1.6939,1.6972,1.7015,1.7037,1.7089,1.7118,1.7159,1.7156,1.711,1.7262,1.7197,1.7267,1.7267,1.7301,1.7299,1.7502,1.732,1.7319,1.7319,1.7318,0,1.6781,1.6858,1.6853,1.6905,1.699,1.6977,1.7062,1.7075,1.7102,1.7157,1.713,1.7183,1.7175,1.7229,1.7227,1.7314,1.7327,1.7332,1.7331,1.7335,1.7334,1.7355,1.7346,1.7324,1.7323,1.7322,1.7321,0,1.693,1.693,1.702,1.7045,1.7053,1.7115,1.7138,1.7188,1.7193,1.7263,1.7279,1.7288,1.735,1.7351,1.7422,1.7421,1.7527,1.7515,1.7516,1.7513,1.7583,1.7577,1.7807,1.7838,1.7635,1.7637,1.7639,0,1.7029,1.7086,1.7118,1.7152,1.7171,1.7227,1.726,1.7251,1.7287,1.7331,1.7377,1.7436,1.7482,1.7584,1.7598,1.7653,1.7642,1.7719,1.765,1.7653,1.7645,1.7641,1.7648,1.7733,1.7735,1.7737,1.7738,0,1.7203,1.7201,1.7249,1.7298,1.7339,1.7377,1.7413,1.7443,1.7438,1.7481,1.7543,1.758,1.7652,1.7712,1.7766,1.7785,1.7762,1.776,1.7779,1.7784,1.7782,1.7785,1.7553,1.7755,1.7753,1.7752,1.7751,1.775,1.7331,1.7381,1.7411,1.7466,1.7492,1.7527,1.7575,1.7586,1.7637,1.7695,1.7687,1.7757,1.7791,1.786,1.7884,1.794,1.7914,1.7941,1.7948,1.7956,1.7964,1.7773,1.795,1.795,1.7949,1.7949,1.7948,0,1.7505,1.7523,1.7574,1.7624,1.7669,1.7641,1.768,1.7719,1.7781,1.7814,1.786,1.7933,1.7991,1.801,1.8067,1.8109,1.81,1.8124,1.8121,1.8126,1.7984,1.7962,1.813,1.813,1.813,1.813,1.813,1.813,1.7601,1.7684,1.7686,1.7783,1.78,1.7868,1.7892,1.7925,1.7951,1.8033,1.808,1.8092,1.812,1.8179,1.8232,1.8236,1.8259,1.8288,1.8288,1.8154,1.8136,1.8119,1.8098,1.8293,1.8293,1.8426,1.8427,1.8428]},{"header":{"parameterUnit":"m.s-1","parameterCategory":1,"la1":30.2991,"la2":30.254,"lo1":-89.0895,"lo2":-89.0444,"dy":0.0017,"dx":0.0017,"nx":28,"ny":28,"refTime":"2023-10-17T21:00:00:Z","depth":0,"parameterNumber":3,"parameterNumberName":"V-component_of_WINDS"},"data":[0,0,0,0,0,0,0,0,0,0,0,0,0,0,0,0,0,0,0,0,0,0,0,0,0,0,0,0,0,0,0,0,0,0,0,0,0,0,0,0,0,0,0,0,0,0,0,0,0,0,0,0,0,0,0,0,0,0,-0.3119,-0.3119,0,-0.3052,-0.3052,-0.3051,-0.307,-0.3071,-0.3073,-0.3074,-0.3002,-0.2999,-0.2996,0,0,0,0,0,0,0,0,0,0,0,0,0,-0.3261,-0.3258,-0.3119,-0.3118,-0.3118,-0.3052,-0.3052,-0.3051,-0.307,-0.3071,-0.3073,-0.3075,-0.3003,-0.2999,-0.2996,0,0,0,0,0,0,0,0,0,0,0,0,0,-0.3197,-0.3257,-0.3119,-0.3119,-0.3119,-0.3053,-0.3052,-0.305,-0.3069,-0.3071,-0.3074,-0.3075,-0.3004,-0.3,-0.2995,-0.2924,0,0,-0.298,-0.2978,0,0,0,0,0,0,0,0,-0.3201,-0.3192,-0.312,-0.3119,-0.3118,-0.3072,-0.3075,-0.3008,-0.3069,-0.3088,-0.3074,-0.3076,-0.3023,-0.3017,-0.3,-0.292,-0.2917,-0.298,-0.2977,-0.2975,-0.2974,0,0,0,0,0,0,0,-0.3205,-0.3195,-0.3093,-0.3119,-0.3118,-0.3122,-0.3115,-0.3062,-0.3045,-0.3086,-0.3088,-0.308,-0.3023,-0.3004,-0.2998,-0.2916,-0.298,-0.2976,-0.2973,-0.2971,-0.2776,-0.2774,0,0,0,0,0,0,-0.3211,-0.3199,-0.3095,-0.3091,-0.3166,-0.3118,-0.311,-0.3085,-0.3045,-0.3041,-0.3078,-0.3081,-0.3012,-0.3004,-0.2996,-0.291,-0.2975,-0.297,-0.2968,-0.2778,-0.2776,-0.2773,0,0,0,0,0,0,-0.3214,-0.3201,-0.3098,-0.3145,-0.3132,-0.3113,-0.3084,-0.3082,-0.3063,-0.3039,-0.3036,-0.3062,-0.3013,-0.3003,-0.2942,-0.2908,-0.2968,-0.2964,-0.2781,-0.2778,-0.2774,-0.2739,0,0,0,0,0,0,-0.3218,-0.3202,-0.3175,-0.3144,-0.3129,-0.3045,-0.3082,-0.3079,-0.3056,-0.3059,-0.3023,-0.302,-0.3014,-0.2949,-0.2937,-0.2903,-0.296,-0.2784,-0.2779,-0.2775,-0.2743,-0.2734,-0.2727,0,0,0,0,0,-0.3223,-0.3167,-0.3174,-0.3161,-0.3096,-0.3043,-0.3035,-0.303,-0.3053,-0.3025,-0.301,-0.3021,-0.2914,-0.2943,-0.293,-0.2893,-0.2786,-0.2781,-0.2776,-0.2746,-0.2736,-0.2727,0,0,0,0,0,0,-0.3193,-0.3163,-0.317,-0.3103,-0.3076,-0.3047,-0.3012,-0.302,-0.2984,-0.2989,-0.2984,-0.2976,-0.2914,-0.2897,-0.293,-0.2823,-0.2853,-0.2845,-0.2835,-0.2825,-0.2818,-0.2823,-0.2956,0,0,0,0,0,-0.3179,-0.314,-0.3115,-0.3059,-0.3045,-0.3031,-0.3008,-0.3007,-0.2978,-0.2966,-0.2946,-0.2917,-0.2877,-0.285,-0.2812,-0.2741,-0.2734,-0.2709,-0.2702,-0.2695,-0.2688,-0.265,-0.2639,-0.2756,-0.2756,-0.2756,0,0,-0.3149,-0.3128,-0.3103,-0.3052,-0.3031,-0.299,-0.3021,-0.2976,-0.2945,-0.2959,-0.2901,-0.2885,-0.2852,-0.2786,-0.2756,-0.2771,-0.2654,-0.2689,-0.2684,-0.268,-0.2643,-0.2632,-0.2622,-0.2753,-0.2753,-0.2754,0,0,-0.3073,-0.3054,-0.3004,-0.2983,-0.2951,-0.2942,-0.2931,-0.2901,-0.2891,-0.2833,-0.2843,-0.2806,-0.2737,-0.2714,-0.2692,-0.261,-0.2618,-0.2597,-0.2556,-0.2519,-0.251,-0.2502,-0.2472,-0.2462,-0.2591,-0.259,-0.259,0,-0.304,-0.2979,-0.2978,-0.2932,-0.2909,-0.2922,-0.2872,-0.2851,-0.2807,-0.2791,-0.2808,-0.2723,-0.2702,-0.2631,-0.2611,-0.2593,-0.2579,-0.2601,-0.2512,-0.2503,-0.2496,-0.2467,-0.2456,-0.2588,-0.2588,-0.2589,-0.2589,0,-0.2939,-0.2897,-0.2861,-0.2821,-0.2794,-0.2746,-0.2737,-0.271,-0.2712,-0.2701,-0.2642,-0.2617,-0.2575,-0.2558,-0.2559,-0.2487,-0.2497,-0.2513,-0.2544,-0.2482,-0.2456,-0.2445,-0.2585,-0.2586,-0.2586,-0.2587,0,0,-0.2842,-0.2802,-0.2789,-0.2771,-0.2738,-0.2704,-0.2658,-0.2617,-0.2594,-0.2564,-0.2524,-0.2467,-0.2482,-0.2458,-0.2456,-0.2424,-0.236,-0.2444,-0.2443,-0.2429,-0.228,-0.2268,-0.2255,-0.2366,-0.2364,-0.2363,-0.2283,0,-0.2763,-0.2681,-0.2679,-0.2604,-0.2565,-0.2577,-0.2536,-0.2511,-0.25,-0.2465,-0.2453,-0.2412,-0.2435,-0.2421,-0.2389,-0.2375,-0.233,-0.2381,-0.2329,-0.2327,-0.2336,-0.2241,-0.2228,-0.2154,-0.2272,-0.2271,-0.2269,0,-0.266,-0.2628,-0.2549,-0.2523,-0.2506,-0.2469,-0.2433,-0.2399,-0.2371,-0.2366,-0.234,-0.2344,-0.2295,-0.2329,-0.2262,-0.2297,-0.2276,-0.2265,-0.2262,-0.2256,-0.2294,-0.2233,-0.213,-0.2119,-0.2253,-0.2254,-0.2255,0,-0.2596,-0.2534,-0.2479,-0.2463,-0.243,-0.2404,-0.2389,-0.2363,-0.234,-0.2308,-0.2292,-0.2254,-0.2234,-0.2204,-0.2198,-0.2223,-0.2131,-0.2164,-0.2125,-0.2125,-0.2104,-0.2105,-0.1996,-0.2091,-0.2092,-0.2092,-0.2092,0,-0.2508,-0.2459,-0.245,-0.2416,-0.2362,-0.236,-0.2307,-0.2293,-0.227,-0.2234,-0.2242,-0.2208,-0.2202,-0.2166,-0.216,-0.2106,-0.2097,-0.2091,-0.2089,-0.2089,-0.209,-0.2075,-0.2079,-0.2089,-0.209,-0.209,-0.2091,0,-0.2427,-0.2419,-0.236,-0.2334,-0.2327,-0.2288,-0.2266,-0.2233,-0.2225,-0.2178,-0.2167,-0.2153,-0.2111,-0.2102,-0.2052,-0.2049,-0.1985,-0.1989,-0.1994,-0.1994,-0.1956,-0.196,-0.1832,-0.1816,-0.1923,-0.1922,-0.1921,0,-0.2371,-0.2334,-0.2305,-0.2282,-0.2266,-0.2228,-0.2204,-0.2201,-0.2176,-0.2142,-0.2114,-0.2073,-0.2041,-0.1974,-0.1958,-0.192,-0.1924,-0.1882,-0.1918,-0.1919,-0.1923,-0.1925,-0.1921,-0.1874,-0.1873,-0.1872,-0.1872,0,-0.2272,-0.227,-0.2236,-0.2201,-0.2173,-0.2145,-0.2118,-0.2098,-0.2092,-0.2063,-0.2021,-0.1996,-0.1946,-0.1906,-0.1869,-0.1853,-0.1861,-0.1861,-0.185,-0.1849,-0.1853,-0.185,-0.1975,-0.1863,-0.1864,-0.1865,-0.1865,-0.1865,-0.2201,-0.2169,-0.2144,-0.2106,-0.2086,-0.2061,-0.203,-0.2018,-0.1983,-0.1943,-0.1943,-0.1898,-0.1871,-0.1822,-0.1804,-0.1768,-0.1781,-0.1765,-0.1761,-0.1757,-0.1754,-0.186,-0.1762,-0.1762,-0.1762,-0.1762,-0.1762,0,-0.2102,-0.2087,-0.2053,-0.2016,-0.1986,-0.1998,-0.1969,-0.1943,-0.1903,-0.1879,-0.1847,-0.18,-0.1761,-0.1743,-0.1705,-0.168,-0.1683,-0.167,-0.1671,-0.1668,-0.1744,-0.1757,-0.1669,-0.1669,-0.1669,-0.1669,-0.1669,-0.1669,-0.2047,-0.1994,-0.199,-0.1927,-0.1912,-0.1868,-0.1851,-0.1828,-0.1808,-0.1755,-0.1724,-0.1713,-0.1691,-0.1652,-0.1617,-0.1613,-0.1599,-0.1584,-0.1581,-0.1653,-0.1662,-0.1671,-0.1684,-0.1581,-0.1581,-0.1508,-0.1507,-0.1507]}]]